Weather History for Valentine, NE

Change the Weather History Date:

Saturday, July 5, 2014

  Actual Average Record
Temperature  
Mean Temperature 81 °F 73 °F  
Max Temperature 98 °F 88 °F 108 °F (1936)
Min Temperature 64 °F 59 °F 39 °F (1915)
Degree Days  
Heating Degree Days 0 0  
Month to date heating degree days 6 2  
Since 1 June heating degree days 60 63  
Since 1 July heating degree days 6 2  
Cooling Degree Days 16 9  
Month to date cooling degree days 35 42  
Year to date cooling degree days 207 213  
Since 1 June cooling degree days 146 179  
Growing Degree Days 31 (Base 50)    
Moisture  
Dew Point 62 °F    
Average Humidity 58    
Maximum Humidity 93    
Minimum Humidity 22    
Precipitation  
Precipitation 0.00 in 0.12 in 1.60 in (1930)
Month to date precipitation 0.00 0.55  
Year to date precipitation 15.84 11.27  
Snow  
Snow 0.00 in 0.00 in 0.00 in ()
Month to date snowfall 0.0 0.0  
Since 1 June snowfall 0.0 0.0  
Since 1 July snowfall 0.0 0.0  
Snow Depth 0.00 in    
Sea Level Pressure  
Sea Level Pressure 29.87 in    
Wind  
Wind Speed 7 mph (SSW)    
Max Wind Speed 16 mph    
Max Gust Speed 20 mph    
Visibility 10 miles    
Events      
T = Trace of Precipitation, MM = Missing Value Source: NWS Daily Summary

Daily Weather History Graph

Daily Weather History Graph

Search for Another Location

Airport:

Trip Planner

Search our weather history database for the weather conditions in past years. The results will help you decide how hot, cold, wet, or windy it might be!

Date:

Astronomy

Jul. 05, 2014 Rise Set
Actual Time 6:09 AM CDT 9:23 PM CDT
Civil Twilight 5:34 AM CDT 9:58 PM CDT
Nautical Twilight 4:50 AM CDT 10:43 PM CDT
Astronomical Twilight 3:55 AM CDT 11:37 PM CDT
Moon 2:18 PM CDT (7/5) 1:05 AM CDT (7/5)
Length of Visible Light 16h 23m
Length of Day
15h 13m
First Quarter, 52% of the Moon is Illuminated
Jul 5
First Quarter
Jul 12
Full
Jul 18
Last Quarter
Jul 26
New
Aug 3
First Quarter

Hourly Weather History & Observations

Time (CDT) Temp. Heat Index Dew Point Humidity Pressure Visibility Wind Dir Wind Speed Gust Speed Precip Events Conditions
12:52 AM 75.0 °F - 68.0 °F 79% 29.89 in 10.0 mi South 9.2 mph - N/A   Clear
1:52 AM 73.0 °F - 68.0 °F 84% 29.88 in 10.0 mi SSW 6.9 mph - N/A   Clear
2:52 AM 72.0 °F - 68.0 °F 87% 29.87 in 10.0 mi WSW 8.1 mph - N/A   Clear
3:52 AM 68.0 °F - 66.0 °F 93% 29.86 in 10.0 mi SW 8.1 mph - N/A   Clear
4:52 AM 70.0 °F - 63.0 °F 78% 29.88 in 10.0 mi SW 15.0 mph - N/A   Clear
5:52 AM 73.0 °F - 57.0 °F 57% 29.88 in 10.0 mi WSW 12.7 mph - N/A   Clear
6:52 AM 64.9 °F - 59.0 °F 81% 29.91 in 10.0 mi West 4.6 mph - N/A   Clear
7:52 AM 72.0 °F - 59.0 °F 64% 29.90 in 10.0 mi WSW 8.1 mph - N/A   Clear
8:52 AM 78.1 °F - 60.1 °F 54% 29.88 in 10.0 mi WSW 8.1 mph - N/A   Clear
9:52 AM 82.9 °F 82.8 °F 59.0 °F 44% 29.88 in 10.0 mi West 9.2 mph - N/A   Clear
10:52 AM 87.1 °F 86.7 °F 60.1 °F 40% 29.88 in 10.0 mi NW 6.9 mph - N/A   Clear
11:52 AM 90.0 °F 90.6 °F 63.0 °F 40% 29.88 in 10.0 mi North 5.8 mph - N/A   Clear
12:52 PM 91.4 °F 93.2 °F 64.4 °F 41% 29.96 in 10.0 mi ESE 5.8 mph - N/A   Clear
1:52 PM 93.0 °F 93.8 °F 62.1 °F 36% 29.87 in 10.0 mi Variable 3.5 mph - N/A   Clear
2:52 PM 96.1 °F 96.0 °F 60.1 °F 30% 29.86 in 10.0 mi Calm Calm - N/A   Clear
3:52 PM 95.0 °F 94.4 °F 59.0 °F 30% 29.86 in 10.0 mi Variable 4.6 mph - N/A   Clear
4:52 PM 97.0 °F - 51.1 °F 21% 29.85 in 10.0 mi Variable 3.5 mph - N/A   Clear
5:52 PM 96.1 °F - 51.1 °F 22% 29.84 in 10.0 mi East 4.6 mph - N/A   Clear
6:52 PM 93.9 °F 95.2 °F 63.0 °F 36% 29.83 in 10.0 mi ENE 6.9 mph - N/A   Clear
7:52 PM 91.9 °F 93.3 °F 64.0 °F 39% 29.83 in 10.0 mi ENE 5.8 mph - N/A   Clear
8:52 PM 84.0 °F 85.8 °F 64.9 °F 53% 29.83 in 10.0 mi East 6.9 mph - N/A   Clear
9:52 PM 82.9 °F 83.7 °F 62.1 °F 49% 29.84 in 10.0 mi East 8.1 mph - N/A   Clear
10:52 PM 80.1 °F 81.7 °F 64.0 °F 58% 29.84 in 10.0 mi SE 6.9 mph - N/A   Clear
11:52 PM 75.0 °F - 64.9 °F 71% 29.84 in 10.0 mi Calm Calm - N/A   Clear